Location: Laterina
(43.5167°N, 11.7167°E)
Time: 16:25:00
(UTC+00:00)

BREEZE-M R/B - Pass Details

Date: 24 September 2020
Orbit: 263 x 23050 km, 49.2° (Epoch: 20 October)

Event Time Altitude Azimuth Distance (km) Brightness Sun altitude
Rises 19:03:07 0° 256° (WSW) 8,054 10.1 -21.6°
Reaches altitude 10° 19:11:07 10° 261° (W) 4,621 8.8 -23.0°
Maximum altitude 19:19:42 51° 337° (NNW) 833 4.4 -24.4°
Enters shadow 19:20:21 44° 13° (NNE) 810 4.1 -24.5°
